Home   Weather   The Settlement   Past weeks

Flag for Christmas Island Past Weather in The Settlement, Christmas Island — Yesterday and Last 2 Weeks

75 °F


Feels Like: 74 °F
Forecast: 75 / 78 °F
Wind: 8 mph from Northwest

Location: Christmas Island Aerodrome

Current Time: Oct 29, 2016 at 1:08:03 AM

Latest Report: Oct 29, 2016 at 12:00 AM

Visibility: N/A

Pressure: 29.92 "Hg

Humidity: 94%

Dew Point: 73 °F

Location of The SettlementLocation

Past Weather in The Settlement — Graph


The Settlement Temperature Yesterday

Maximum temperature yesterday: 84 °F (at 10:00 AM)
Minimum temperature yesterday: 73 °F (at 4:00 AM)
Average temperature yesterday: 78 °F

High & Low Weather Summary for the Past Weeks

High84 °F (Oct 15, 12:00 PM)100% (Oct 13, 11:00 PM)29.98 "Hg (Oct 13, 11:00 PM)
Low72 °F (Oct 16, 6:30 AM)70% (Oct 15, 11:00 AM)29.68 "Hg (Oct 14, 3:00 AM)
Average77 °F89%29.87 "Hg
* Reported Oct 13 11:00 PM — Oct 28 11:30 PM, The Settlement, Weather by CustomWeather, © 2016

Note: Actual official high and low records may vary slightly from our data, if they occured in-between our weather recording intervals... More about our weather records


The Settlement Weather History for the Previous 24 Hours

Scroll right to see more
Time TempWeatherWind HumidityBarometerVisibility
11:30 PM
Fri, Oct 28
75 °FSprinkles. Partly cloudy.7 mph94%29.92 "HgN/A
11:05 PM75 °FSprinkles. Partly cloudy.6 mph94%29.92 "HgN/A
11:00 PM75 °FSprinkles. Partly cloudy.7 mph94%29.92 "HgN/A
10:00 PM77 °FPartly cloudy.6 mph94%29.95 "HgN/A
9:30 PM77 °FPartly cloudy.6 mph89%29.92 "HgN/A
9:00 PM77 °FPassing clouds.6 mph89%29.92 "HgN/A
8:55 PM77 °FPassing clouds.5 mph89%29.92 "HgN/A
8:30 PM77 °FPartly cloudy.5 mph89%29.92 "HgN/A
8:00 PM77 °FPassing clouds.7 mph89%29.92 "HgN/A
7:30 PM77 °FPassing clouds.7 mph89%29.89 "HgN/A
7:00 PM77 °FPassing clouds.8 mph89%29.89 "HgN/A
6:54 PM77 °FPassing clouds.7 mph89%29.89 "HgN/A
6:00 PM77 °FPassing clouds.7 mph94%29.86 "HgN/A
5:00 PM79 °FScattered clouds.8 mph84%29.86 "HgN/A
4:30 PM79 °FBroken clouds.8 mph84%29.86 "HgN/A
4:05 PM79 °FBroken clouds.8 mph89%29.83 "HgN/A
3:30 PM81 °FScattered clouds.9 mph79%29.83 "HgN/A
3:00 PM81 °FScattered clouds.12 mph84%29.83 "HgN/A
2:00 PM81 °FSunny.12 mph79%29.86 "HgN/A
1:30 PM82 °FSunny.13 mph70%29.86 "HgN/A
1:04 PM81 °FScattered clouds.9 mph79%29.86 "HgN/A
12:00 PM82 °FScattered clouds.9 mph74%29.89 "HgN/A
11:48 AM84 °FScattered clouds.8 mph74%29.92 "HgN/A
11:00 AM84 °FPartly sunny.8 mph74%29.92 "HgN/A
10:00 AM84 °FPartly sunny.9 mph74%29.95 "HgN/A
9:00 AM81 °FCloudy.7 mph84%29.95 "HgN/A
8:58 AM81 °FCloudy.8 mph84%29.95 "HgN/A
8:00 AM81 °FBroken clouds.7 mph84%29.95 "HgN/A
7:30 AM79 °FScattered clouds.6 mph84%29.95 "HgN/A
7:00 AM77 °FSunny.3 mph94%29.92 "HgN/A
6:30 AM75 °FScattered clouds.No wind100%29.92 "HgN/A
6:00 AM73 °FScattered clouds.No wind100%29.89 "HgN/A
5:00 AM73 °FClear.No wind100%29.89 "HgN/A
4:00 AM73 °FPassing clouds.No wind100%29.86 "HgN/A
3:30 AM75 °FPassing clouds.3 mph94%29.86 "HgN/A
3:00 AM75 °FOvercast.No wind94%29.89 "HgN/A
2:30 AM75 °FPartly cloudy.3 mph100%29.89 "HgN/A
2:00 AM77 °FPassing clouds.3 mph89%29.89 "HgN/A
1:30 AM77 °FPartly cloudy.5 mph94%29.89 "HgN/A
1:00 AM77 °FPartly cloudy.5 mph94%29.92 "HgN/A
Weather by CustomWeather, © 2016

See weather overviewHow to use our weather pages